Simultaneous Nadir Overpasses (SNOs) Predictions

Prediction of SNOs between NOAA-20 and METOP-B Satellite Orbit:

Table of predicted SNOs for the next 14.0 days since TLE Epoch: 10/18/2023
Index Date (NOAA-20) Time (NOAA-20) Lat,Lon (NOAA-20) SZA (NOAA-20 ) Date (METOP-B) Time (METOP-B) Lat,Lon (METOP-B) SZA (METOP-B ) Distance(km) Time Diff (sec)
1 10/25/2023 11:56:57 -73.70, 170.61 94.20 10/25/2023 11:58:03 -73.65, 173.57 94.32 92.66 66
2 10/25/2023 12:47:38 73.46, -21.53 85.56 10/25/2023 12:48:47 73.42, -19.61 85.48 60.91 69
3 10/25/2023 13:38:21 -73.41, 145.90 94.48 10/25/2023 13:39:31 -73.32, 147.49 94.61 51.76 70
4 10/25/2023 14:29:02 73.17, -46.25 85.28 10/25/2023 14:30:14 73.15, -45.56 85.24 22.52 72
5 10/25/2023 15:19:44 -73.08, 121.27 94.81 10/25/2023 15:20:58 -73.05, 121.55 94.86 9.62 74
6 10/25/2023 16:10:28 72.98, -71.22 85.11 10/25/2023 16:11:39 72.97, -71.28 85.09 2.62 71
7 10/25/2023 17:01:12 -72.99, 96.09 94.88 10/25/2023 17:02:21 -72.97, 96.04 94.90 2.64 69
8 10/25/2023 17:51:58 72.99, -96.62 85.15 10/25/2023 17:53:00 72.99, -96.57 85.14 1.59 62
9 10/25/2023 18:42:42 -73.00, 70.69 94.84 10/25/2023 18:43:42 -72.99, 70.75 94.86 2.42 60
10 10/25/2023 19:33:27 72.96,-121.91 85.13 10/25/2023 19:34:22 72.97,-121.97 85.13 2.05 55
11 10/25/2023 20:24:11 -72.96, 45.39 94.86 10/25/2023 20:25:04 -72.97, 45.36 94.86 1.18 53
12 10/25/2023 21:14:57 72.97,-147.31 85.17 10/25/2023 21:15:43 72.99,-147.26 85.18 2.90 46
13 10/25/2023 22:05:41 -72.97, 19.99 94.82 10/25/2023 22:06:25 -72.99, 20.07 94.81 3.00 44
14 10/25/2023 22:56:27 72.98,-172.71 85.20 10/25/2023 22:57:05 72.96,-172.65 85.18 2.87 38
15 10/25/2023 23:47:10 -72.94, -5.30 94.84 10/25/2023 23:47:47 -72.96, -5.33 94.81 3.06 37
16 10/26/2023 00:37:56 72.94, 161.99 85.19 10/26/2023 00:38:27 72.94, 161.95 85.18 1.63 31
17 10/26/2023 01:28:40 -72.95, -30.70 94.80 10/26/2023 01:29:09 -72.94, -30.72 94.81 1.55 29
18 10/26/2023 02:19:26 72.96, 136.59 85.23 10/26/2023 02:19:48 72.96, 136.66 85.23 2.28 22
19 10/26/2023 03:10:10 -72.96, -56.10 94.76 10/26/2023 03:10:30 -72.96, -56.01 94.77 2.91 20
20 10/26/2023 04:00:55 72.92, 111.30 85.21 10/26/2023 04:01:10 72.93, 111.27 85.22 2.07 15
21 10/26/2023 04:51:39 -72.92, -81.39 94.78 10/26/2023 04:51:52 -72.93, -81.41 94.77 1.27 13
22 10/26/2023 05:42:25 72.93, 85.90 85.25 10/26/2023 05:42:32 72.91, 85.87 85.22 2.81 7
23 10/26/2023 06:33:09 -72.94,-106.79 94.74 10/26/2023 06:33:14 -72.91,-106.80 94.77 3.14 5
24 10/26/2023 07:23:55 72.94, 60.50 85.28 10/26/2023 07:23:53 72.93, 60.58 85.27 2.97 2
25 10/26/2023 08:14:38 -72.90,-132.09 94.76 10/26/2023 08:14:35 -72.93,-132.09 94.72 3.77 3
26 10/26/2023 09:05:24 72.90, 35.21 85.27 10/26/2023 09:05:15 72.90, 35.19 85.27 0.71 9
27 10/26/2023 09:56:08 -72.91,-157.49 94.72 10/26/2023 09:55:57 -72.90,-157.49 94.72 0.56 11
28 10/26/2023 10:46:54 72.92, 9.81 85.30 10/26/2023 10:46:36 72.93, 9.90 85.32 3.16 18
29 10/26/2023 11:37:37 -72.87, 177.22 94.74 10/26/2023 11:37:19 -72.88, 177.12 94.73 3.42 18
30 10/26/2023 12:28:23 72.88, -15.49 85.29 10/26/2023 12:27:58 72.90, -15.50 85.31 2.48 25
31 10/26/2023 13:19:07 -72.88, 151.82 94.70 10/26/2023 13:18:40 -72.90, 151.83 94.68 2.02 27
32 10/26/2023 14:09:53 72.89, -40.89 85.33 10/26/2023 14:09:20 72.87, -40.90 85.31 1.95 33
33 10/26/2023 15:00:37 -72.90, 126.42 94.66 10/26/2023 15:00:02 -72.88, 126.43 94.68 2.38 35
34 10/26/2023 15:51:23 72.90, -66.29 85.36 10/26/2023 15:50:41 72.90, -66.18 85.36 3.41 42
35 10/26/2023 16:42:06 -72.86, 101.13 94.68 10/26/2023 16:41:24 -72.85, 101.04 94.68 3.09 42
36 10/26/2023 17:32:52 72.87, -91.58 85.35 10/26/2023 17:32:03 72.87, -91.58 85.36 0.60 49
37 10/26/2023 18:23:36 -72.87, 75.73 94.64 10/26/2023 18:22:45 -72.87, 75.75 94.64 0.74 51
38 10/26/2023 19:14:22 72.88,-116.98 85.38 10/26/2023 19:13:25 72.84,-116.98 85.36 3.79 57
39 10/26/2023 20:05:05 -72.83, 50.43 94.66 10/26/2023 20:04:07 -72.85, 50.35 94.64 3.00 58
40 10/26/2023 20:55:51 72.84,-142.27 85.37 10/26/2023 20:54:46 72.87,-142.27 85.40 3.13 65
41 10/26/2023 21:46:35 -72.85, 25.03 94.62 10/26/2023 21:45:28 -72.87, 25.06 94.59 2.93 67
42 10/26/2023 22:37:21 72.85,-167.68 85.41 10/26/2023 22:36:08 72.84,-167.66 85.40 1.35 73
43 10/26/2023 23:28:05 -72.86, -0.37 94.58 10/26/2023 23:26:50 -72.84, -0.33 94.59 1.97 75
44 10/27/2023 00:18:46 72.61, 167.45 85.18 10/27/2023 00:17:34 72.61, 166.53 85.20 30.73 72
45 10/27/2023 01:09:29 -72.57, -25.14 94.86 10/27/2023 01:08:17 -72.56, -26.25 94.83 36.82 72
46 10/27/2023 02:00:10 72.32, 142.66 84.90 10/27/2023 01:59:01 72.33, 140.62 84.96 68.89 69
47 10/27/2023 02:50:53 -72.27, -49.93 95.14 10/27/2023 02:49:44 -72.28, -52.14 95.08 74.81 69



Historial Predications of SNOs between NOAA-20 and METOP-B
